Simultaneous Nadir Overpasses (SNOs) Predictions

Prediction of SNOs between GOES-14 and AQUA Satellite Orbit:

Table of predicted SNOs for the next 14.0 days since TLE Epoch: 1/13/2024
Index Date Time (GOES-14) GOES-14 Lat,Lon AQUA Lat,Lon Distance(km) Time Diff (sec)
1 01/13/2024 09:10:04 -0.06,-108.56 -0.36,-107.18 157.02 80
2 01/13/2024 21:27:58 0.06,-108.56 -0.69,-112.17 409.49 80
3 01/15/2024 21:15:16 0.06,-108.56 0.12,-108.41 17.36 80
4 01/17/2024 20:59:54 0.06,-108.56 0.91,-104.65 444.35 80
5 01/18/2024 09:20:19 -0.06,-108.55 0.15,-109.60 118.48 80
6 01/20/2024 09:02:15 -0.05,-108.55 -0.65,-105.84 309.06 80
7 01/20/2024 21:22:49 0.05,-108.55 -0.41,-110.81 257.15 80
8 01/22/2024 21:10:04 0.04,-108.54 0.39,-107.05 170.67 80
9 01/23/2024 09:30:29 -0.04,-108.54 0.69,-111.98 391.96 80
10 01/25/2024 09:12:23 -0.03,-108.53 -0.11,-108.21 36.39 80
